• Join FlightAware (Why Join?)
  • Login
  • US Flag 
10:02AM EST


 

Airport Tracker/Info


-or-


 

Live Flight TrackerFlight Track Log ✈ SWA2624 ✈ 21-Apr-2013 ✈ KABQ - KLAS

Flight Track Log - Related Links

Times and Time Zones

All times are in EDT time to prevent confusion due to time zone crossing. See the SWA2624 flight status page for this flight to view local times or setup timezone preferences in your user account.

Time Position Orientation Groundspeed Altitude Reporting Facility
EDT Latitude Longitude Course Direction KTS MPH feet Rate Location/Type
11:33PM 34.9839 -106.5922 186° South 249 287 9,200  Level Albuquerque Center
11:34PM 35.0006 -106.6953 281° West 285 328 12,700 3,733 Climbing Albuquerque Center
11:35PM 35.0494 -106.8211 295° West 352 405 17,600 4,279 Climbing Albuquerque Center
11:36PM 35.0894 -106.9292 294° West 368 423 21,400 3,344 Climbing Albuquerque Center
11:37PM 35.1317 -107.0428 294° West 382 440 24,400 3,073 Climbing Albuquerque Center
11:38PM 35.1839 -107.1800 295° West 398 458 27,700 3,024 Climbing Albuquerque Center
11:39PM 35.2172 -107.3061 288° West 407 468 30,600 2,754 Climbing Albuquerque Center
11:40PM 35.2286 -107.4406 276° West 399 459 33,300 2,557 Climbing Albuquerque Center
11:41PM 35.2408 -107.5889 276° West 402 463 35,800 2,439 Climbing Albuquerque Center
11:42PM 35.2522 -107.7172 276° West 400 460 38,300 2,049 Climbing Albuquerque Center
11:43PM 35.2647 -107.8611 276° West 386 444 40,000 836 Climbing Albuquerque Center
11:44PM 35.2767 -107.9847 277° West 383 441 40,000  Level Albuquerque Center
11:45PM 35.2869 -108.1081 276° West 381 438 40,000  Level Albuquerque Center
11:46PM 35.2994 -108.2531 276° West 382 440 40,000  Level Albuquerque Center
11:47PM 35.3094 -108.3789 276° West 386 444 40,000  Level Albuquerque Center
11:48PM 35.3217 -108.5256 276° West 386 444 40,000  Level Albuquerque Center
11:49PM 35.3325 -108.6506 276° West 385 443 40,000  Level Albuquerque Center
11:50PM 35.3425 -108.7772 276° West 387 445 40,000  Level Albuquerque Center
11:51PM 35.3544 -108.9247 276° West 388 447 40,000  Level Albuquerque Center
11:52PM 35.3639 -109.0519 275° West 390 449 40,000  Level Albuquerque Center
11:53PM 35.3739 -109.1778 276° West 388 447 40,000  Level Albuquerque Center
11:55PM 35.3850 -109.3256 275° West 389 448 40,000  Level Albuquerque Center
11:56PM 35.3942 -109.4542 275° West 392 451 40,000  Level Albuquerque Center
11:57PM 35.4047 -109.5831 276° West 396 456 40,000  Level Albuquerque Center
11:58PM 35.4150 -109.7325 275° West 394 453 40,000  Level Albuquerque Center
11:59PM 35.4228 -109.8603 274° West 393 452 40,000  Level Albuquerque Center
12:00AM 35.4308 -109.9881 274° West 396 456 40,000  Level Albuquerque Center
12:01AM 35.4414 -110.1367 275° West 392 451 40,000  Level Albuquerque Center
12:02AM 35.4492 -110.2642 274° West 393 452 40,000  Level Albuquerque Center
12:03AM 35.4575 -110.4139 274° West 394 453 40,000  Level Albuquerque Center
12:04AM 35.4664 -110.5436 275° West 398 458 40,000  Level Albuquerque Center
12:05AM 35.4761 -110.6728 275° West 397 457 40,000  Level Albuquerque Center
12:06AM 35.4850 -110.8242 274° West 399 459 40,000  Level Albuquerque Center
12:07AM 35.4917 -110.9536 274° West 398 458 40,000  Level Albuquerque Center
12:08AM 35.5000 -111.0819 275° West 397 457 40,000 -492 Level Albuquerque Center
12:09AM 35.5086 -111.2319 274° West 395 455 39,000 -942 Descending Albuquerque Center
12:10AM 35.5175 -111.3633 275° West 400 460 38,100 -1,180 Descending Albuquerque Center
12:11AM 35.5247 -111.4994 274° West 405 466 36,600 -2,213 Descending Albuquerque Center
12:12AM 35.5325 -111.6356 274° West 404 465 33,600 -3,000 Descending Albuquerque Center
12:13AM 35.5400 -111.7764 274° West 412 474 30,500 -1,770 Descending Albuquerque Center
12:14AM 35.5494 -111.9258 274° West 433 498 30,000 -246 Descending Albuquerque Center
12:15AM 35.5569 -112.0708 274° West 432 497 30,000  Level Albuquerque Center
12:16AM 35.5631 -112.2147 273° West 427 491 30,000  Level Albuquerque Center
12:17AM 35.5736 -112.3925 274° West 434 499 30,000  Level Albuquerque Center
12:18AM 35.5814 -112.5408 274° West 438 504 30,000  Level Albuquerque Center
12:19AM 35.5883 -112.6881 273° West 438 504 30,000  Level Albuquerque Center
12:20AM 35.5944 -112.8350 273° West 438 504 30,000  Level Albuquerque Center
12:20AM 35.5956 -112.8753 272° West 445 512 30,000  Level Los Angeles Center
12:21AM 35.6028 -113.0164 274° West 432 497 30,000 -488 Level Los Angeles Center
12:22AM 35.6075 -113.1478 273° West 390 449 29,000 -1,073 Descending Los Angeles Center
12:23AM 35.6142 -113.2928 273° West 382 440 27,800 -1,082 Descending Los Angeles Center
12:24AM 35.6192 -113.4192 273° West 376 433 26,800 -927 Descending Los Angeles Center
12:25AM 35.6250 -113.5442 273° West 371 427 25,900 -1,220 Descending Los Angeles Center
12:26AM 35.6419 -113.6653 280° West 361 415 24,300 -2,000 Descending Los Angeles Center
12:27AM 35.6583 -113.7806 280° West 347 399 21,800 -2,341 Descending Los Angeles Center
12:28AM 35.6747 -113.8917 280° West 334 384 19,500 -1,574 Descending Los Angeles Center
12:29AM 35.6931 -114.0264 280° West 332 382 18,600 -1,500 Descending Los Angeles Center
12:30AM 35.7036 -114.1158 278° West 330 380 16,800 -2,226 Descending Los Angeles Center
12:30AM 35.7078 -114.1353 285° West 325 374 16,300 -2,082 Descending Los Angeles Center
12:31AM 35.7200 -114.1978 284° West 323 372 15,100 -1,869 Descending Los Angeles Center
12:31AM 35.7214 -114.2347 273° West 314 361 14,400 -2,071 Descending Los Angeles Center
12:32AM 35.7400 -114.3531 281° West 316 364 12,200 -1,358 Descending Los Angeles Center
12:33AM 35.7836 -114.4019 318° Northwest 289 333 12,000 -182 Descending Los Angeles Center
12:33AM 35.8044 -114.4108 341° North 288 331 12,000 -393 Level Los Angeles Center
12:34AM 35.8531 -114.4422 332° Northwest 286 329 11,600 -689 Descending Los Angeles Center
12:34AM 35.8683 -114.4653 309° West 289 333 11,300 -1,000 Descending Los Angeles Center
12:35AM 35.8936 -114.4975 314° West 284 327 10,900 -984 Descending Los Angeles Center
12:35AM 35.9222 -114.5339 314° West 280 322 10,300 -984 Descending Los Angeles Center
12:36AM 35.9481 -114.5669 314° West 283 326 9,900 -968 Descending Los Angeles Center
12:37AM 35.9761 -114.6039 313° West 282 325 9,300 -1,091 Descending Los Angeles Center
12:37AM 35.9989 -114.6297 317° Northwest 282 325 8,900 -984 Descending Los Angeles Center
12:38AM 36.0333 -114.6744 314° West 287 330 8,300 -692 Descending Los Angeles Center
12:38AM 36.0694 -114.7233 312° West 280 322 8,000 -492 Descending Los Angeles Center
12:39AM 36.0753 -114.7458 288° West 274 315 7,800 -977 Descending Los Angeles Center
12:39AM 36.0733 -114.7806 266° West 248 285 7,300 -1,065 Descending Los Angeles Center
12:40AM 36.0736 -114.8286 270° West 252 290 6,700 -787 Descending Los Angeles Center
12:40AM 36.0736 -114.8603 270° West 241 277 6,500 -590 Descending Los Angeles Center
12:41AM 36.0744 -114.9081 271° West 241 277 6,100 -985 Descending Los Angeles Center
12:41AM 36.0739 -114.9400 269° West 196 226 5,400 -1,377 Descending Los Angeles Center
12:42AM 36.0733 -114.9753 269° West 219 252 4,700 -1,556 Descending Los Angeles Center
12:42AM 36.0722 -115.0019 267° West 187 215 4,000 -1,161 Descending Los Angeles Center
12:43AM 36.0739 -115.0328 274° West 193 222 3,500 -722 Descending Los Angeles Center
12:44AM 36.0739 -115.0842 270° West 153 176 2,700 -738 Descending Los Angeles Center
12:45AM 36.0739 -115.1236 270° West 130 150 2,000 -689 Descending Los Angeles Center
12:47AM 36.0667 -115.1500 270° West  Level FlightAware Approximate